Hourly Weather Yeghegnadzor

Today, 4 July, Saturday

Time Temperature Precipitation Wind Pressure Humidity
00:00 +19°C° 0 mm 2 mps 654 mmHg 64%
01:00 +19°C° 0 mm 2 mps 654 mmHg 65%
02:00 +18°C° 0 mm 2 mps 654 mmHg 65%
03:00 +19°C° 0 mm 1 mps 653 mmHg 67%
04:00 +20°C° 0 mm 1 mps 654 mmHg 65%
05:00 +21°C° 0 mm 1 mps 654 mmHg 63%
06:00 +22°C° 0 mm 1 mps 655 mmHg 61%
07:00 +24°C° 0 mm 1 mps 655 mmHg 55%
08:00 +26°C° 0 mm 1 mps 655 mmHg 49%
09:00 +27°C° 0 mm 1 mps 656 mmHg 44%
10:00 +28°C° 0.3 mm 1 mps 656 mmHg 42%
11:00 +29°C° 0.3 mm 1 mps 656 mmHg 40%
12:00 +30°C° 0.3 mm 2 mps 656 mmHg 38%
13:00 +29°C° 0.5 mm 2 mps 655 mmHg 40%
14:00 +29°C° 0.5 mm 3 mps 654 mmHg 42%
15:00 +29°C° 0.5 mm 3 mps 654 mmHg 44%
16:00 +28°C° 0.2 mm 3 mps 654 mmHg 46%
17:00 +28°C° 0.2 mm 2 mps 654 mmHg 47%
18:00 +28°C° 0.2 mm 2 mps 654 mmHg 49%
19:00 +26°C° 0.2 mm 2 mps 654 mmHg 54%
20:00 +24°C° 0.2 mm 2 mps 654 mmHg 60%
21:00 +21°C° 0.2 mm 2 mps 654 mmHg 65%
22:00 +20°C° 0.2 mm 2 mps 653 mmHg 67%
23:00 +20°C° 0.2 mm 2 mps 653 mmHg 69%

Tomorrow, 5 July, Sunday

Time Temperature Precipitation Wind Pressure Humidity
00:00 +20°C° 0.2 mm 1 mps 653 mmHg 71%
01:00 +20°C° 0.1 mm 1 mps 652 mmHg 72%
02:00 +18°C° 0.1 mm 2 mps 652 mmHg 72%
03:00 +18°C° 0.1 mm 2 mps 652 mmHg 73%
04:00 +19°C° 0 mm 2 mps 652 mmHg 71%
05:00 +19°C° 0 mm 2 mps 652 mmHg 69%
06:00 +20°C° 0 mm 2 mps 653 mmHg 66%
07:00 +23°C° 0 mm 2 mps 653 mmHg 60%
08:00 +24°C° 0 mm 2 mps 653 mmHg 54%
09:00 +26°C° 0 mm 1 mps 653 mmHg 48%
10:00 +27°C° 0.2 mm 2 mps 653 mmHg 46%
11:00 +28°C° 0.2 mm 2 mps 653 mmHg 43%
12:00 +29°C° 0.2 mm 3 mps 653 mmHg 41%
13:00 +29°C° 0.4 mm 2 mps 653 mmHg 43%
14:00 +28°C° 0.4 mm 2 mps 652 mmHg 45%
15:00 +28°C° 0.4 mm 2 mps 652 mmHg 47%
16:00 +27°C° 0.2 mm 3 mps 652 mmHg 49%
17:00 +27°C° 0.2 mm 3 mps 652 mmHg 50%
18:00 +26°C° 0.2 mm 3 mps 651 mmHg 51%
19:00 +25°C° 0 mm 3 mps 651 mmHg 56%
20:00 +22°C° 0 mm 3 mps 651 mmHg 61%
21:00 +20°C° 0 mm 3 mps 651 mmHg 66%
22:00 +19°C° 0 mm 3 mps 651 mmHg 66%
23:00 +19°C° 0 mm 3 mps 651 mmHg 66%

Day after tomorrow, 6 July, Monday

Time Temperature Precipitation Wind Pressure Humidity
00:00 +18°C° 0 mm 2 mps 651 mmHg 66%
01:00 +18°C° 0 mm 2 mps 650 mmHg 64%
02:00 +18°C° 0 mm 2 mps 650 mmHg 62%
03:00 +17°C° 0 mm 2 mps 650 mmHg 61%
04:00 +18°C° 0 mm 2 mps 651 mmHg 59%
05:00 +19°C° 0 mm 2 mps 651 mmHg 57%
06:00 +20°C° 0 mm 2 mps 651 mmHg 55%
07:00 +23°C° 0 mm 2 mps 652 mmHg 49%
08:00 +24°C° 0 mm 2 mps 652 mmHg 43%
09:00 +26°C° 0 mm 2 mps 653 mmHg 37%
10:00 +27°C° 0 mm 2 mps 653 mmHg 36%
11:00 +28°C° 0 mm 2 mps 653 mmHg 35%
12:00 +30°C° 0 mm 3 mps 653 mmHg 34%
13:00 +30°C° 0.1 mm 3 mps 652 mmHg 35%
14:00 +30°C° 0.1 mm 3 mps 652 mmHg 36%
15:00 +30°C° 0.1 mm 3 mps 652 mmHg 37%
16:00 +29°C° 0.1 mm 4 mps 652 mmHg 39%
17:00 +28°C° 0.1 mm 4 mps 651 mmHg 42%
18:00 +27°C° 0.1 mm 4 mps 651 mmHg 44%
19:00 +25°C° 0 mm 4 mps 651 mmHg 48%
20:00 +22°C° 0 mm 3 mps 651 mmHg 53%
21:00 +20°C° 0 mm 3 mps 651 mmHg 57%
22:00 +20°C° 0 mm 3 mps 651 mmHg 56%
23:00 +20°C° 0 mm 3 mps 651 mmHg 54%

7 July, Tuesday

Time Temperature Precipitation Wind Pressure Humidity
00:00 +19°C° 0 mm 3 mps 650 mmHg 53%
01:00 +19°C° 0 mm 2 mps 650 mmHg 52%
02:00 +19°C° 0 mm 2 mps 650 mmHg 52%
03:00 +18°C° 0 mm 2 mps 650 mmHg 52%
04:00 +19°C° 0 mm 2 mps 650 mmHg 51%
05:00 +20°C° 0 mm 2 mps 651 mmHg 51%
06:00 +22°C° 0 mm 1 mps 651 mmHg 50%
07:00 +24°C° 0 mm 1 mps 652 mmHg 45%
08:00 +26°C° 0 mm 1 mps 652 mmHg 39%
09:00 +28°C° 0 mm 1 mps 653 mmHg 33%
10:00 +29°C° 0 mm 1 mps 653 mmHg 32%
11:00 +30°C° 0 mm 2 mps 653 mmHg 30%
12:00 +31°C° 0 mm 2 mps 653 mmHg 29%
13:00 +32°C° 0 mm 2 mps 653 mmHg 28%
14:00 +32°C° 0 mm 2 mps 652 mmHg 27%
15:00 +34°C° 0 mm 3 mps 652 mmHg 26%
16:00 +32°C° 0 mm 2 mps 652 mmHg 30%
17:00 +31°C° 0 mm 2 mps 652 mmHg 33%
18:00 +31°C° 0 mm 2 mps 651 mmHg 36%
19:00 +28°C° 0 mm 2 mps 651 mmHg 42%
20:00 +26°C° 0 mm 2 mps 651 mmHg 47%
21:00 +24°C° 0 mm 2 mps 651 mmHg 53%
22:00 +23°C° 0 mm 2 mps 650 mmHg 51%
23:00 +23°C° 0 mm 2 mps 650 mmHg 50%

8 July, Wednesday

Time Temperature Precipitation Wind Pressure Humidity
00:00 +23°C° 0 mm 2 mps 650 mmHg 48%
01:00 +21°C° 0 mm 2 mps 650 mmHg 47%
02:00 +21°C° 0 mm 2 mps 650 mmHg 47%
03:00 +22°C° 0 mm 1 mps 650 mmHg 46%
04:00 +23°C° 0 mm 1 mps 650 mmHg 47%
05:00 +24°C° 0 mm 1 mps 651 mmHg 47%
06:00 +25°C° 0 mm 1 mps 651 mmHg 48%
07:00 +27°C° 0 mm 1 mps 651 mmHg 42%
08:00 +29°C° 0 mm 1 mps 652 mmHg 37%
09:00 +31°C° 0 mm 1 mps 652 mmHg 31%
10:00 +32°C° 0 mm 1 mps 652 mmHg 29%
11:00 +34°C° 0 mm 2 mps 652 mmHg 27%
12:00 +35°C° 0 mm 3 mps 652 mmHg 25%
13:00 +35°C° 0 mm 3 mps 652 mmHg 26%
14:00 +35°C° 0 mm 3 mps 652 mmHg 27%
15:00 +35°C° 0 mm 4 mps 652 mmHg 27%
16:00 +34°C° 0 mm 3 mps 651 mmHg 31%
17:00 +32°C° 0 mm 2 mps 651 mmHg 34%
18:00 +31°C° 0 mm 1 mps 651 mmHg 38%
19:00 +29°C° 0 mm 1 mps 651 mmHg 42%
20:00 +27°C° 0 mm 2 mps 651 mmHg 47%
21:00 +25°C° 0 mm 3 mps 651 mmHg 51%
22:00 +24°C° 0 mm 2 mps 651 mmHg 54%
23:00 +24°C° 0 mm 2 mps 650 mmHg 56%

9 July, Thursday

Time Temperature Precipitation Wind Pressure Humidity
00:00 +23°C° 0 mm 2 mps 650 mmHg 59%
01:00 +23°C° 0.1 mm 2 mps 650 mmHg 59%
02:00 +23°C° 0.1 mm 2 mps 650 mmHg 58%
03:00 +21°C° 0.1 mm 2 mps 650 mmHg 58%
04:00 +23°C° 0.2 mm 1 mps 650 mmHg 58%
05:00 +24°C° 0.2 mm 1 mps 651 mmHg 58%
06:00 +24°C° 0.2 mm 1 mps 651 mmHg 58%
07:00 +26°C° 0 mm 1 mps 652 mmHg 51%
08:00 +28°C° 0 mm 1 mps 652 mmHg 45%
09:00 +30°C° 0 mm 1 mps 653 mmHg 39%
10:00 +30°C° 0.2 mm 2 mps 652 mmHg 38%
11:00 +30°C° 0.2 mm 2 mps 652 mmHg 37%
12:00 +31°C° 0.2 mm 3 mps 652 mmHg 37%
13:00 +33°C° 0.1 mm 3 mps 652 mmHg 34%
14:00 +33°C° 0.1 mm 3 mps 652 mmHg 31%
15:00 +34°C° 0.1 mm 3 mps 652 mmHg 28%
16:00 +33°C° 0.2 mm 4 mps 652 mmHg 35%
17:00 +30°C° 0.2 mm 4 mps 652 mmHg 43%
18:00 +28°C° 0.2 mm 4 mps 652 mmHg 50%
19:00 +26°C° 0.8 mm 4 mps 652 mmHg 58%
20:00 +24°C° 0.8 mm 3 mps 652 mmHg 66%
21:00 +21°C° 0.8 mm 3 mps 652 mmHg 74%
22:00 +21°C° 0.3 mm 2 mps 652 mmHg 75%
23:00 +20°C° 0.3 mm 2 mps 652 mmHg 75%
Show more